User: anonymous   Login
Location: Unspecified
(0.0000°N, 0.0000°E)
Time: 17:07:27
(UTC+00:00)
Language:

GONETS M 11 (M21) - Orbit

View from above orbital plane
View from above orbital plane
View from above satellite
View from above satellite

Ground track
Ground track

The orbit data is extracted from the following two-line orbital elements,

1 40552U 15020A   19016.75653028  .00000034  00000-0  17433-3 0  9995
2 40552  82.4873 278.5005 0016011 146.8327 213.3759 12.42882278172315
Epoch (UTC): 16 January 2019 18:09:24
Eccentricity: 0.0016011
inclination: 82.4873°
perigee height: 1482 km
apogee height: 1507 km
right ascension of ascending node: 278.5005°
argument of perigee: 146.8327°
revolutions per day: 12.42882278
mean anomaly at epoch: 213.3759°
orbit number at epoch: 17231

The dashed part of the orbit path shows where the satellite is in the earth's shadow,  

DLR